FW3030 Weather Reports


time (UTC)temp
C
wind
direction
speed
KPH
gust
KPH
rain 1hr
cm
rain 24hr
cm
rain mn
cm
humidity
%
barometer
mb
20260502194605 20 189 8.0 19.3 0.00 0.00 0.00 32 1012.0
20260502193116 20 173 6.4 14.5 0.00 0.00 0.00 33 1012.4
20260502191603 19 265 4.8 19.3 0.00 0.00 0.00 34 1012.8
20260502190058 18 194 6.4 16.1 0.00 0.00 0.00 33 1013.2
20260502184604 18 318 8.0 22.5 0.00 0.00 0.00 32 1013.4
20260502183102 17 263 6.4 14.5 0.00 0.00 0.00 34 1013.7
20260502181603 17 269 6.4 16.1 0.00 0.00 0.00 33 1014.1
20260502163101 15 180 4.8 14.5 0.00 0.00 0.00 35 1015.7
20260502161556 14 166 4.8 17.7 0.00 0.00 0.00 37 1015.9
20260502151614 12 200 4.8 11.3 0.00 0.00 0.00 43 1017.0
20260502123101 0 0 0.0 1.6 0.00 0.00 0.00 79 1018.2
20260502121601 0 0 0.0 0.0 0.00 0.00 0.00 79 1018.2
20260502114559 0 0 0.0 0.0 0.00 0.00 0.00 76 1018.2
20260502113111 0 0 0.0 0.0 0.00 0.00 0.00 76 1018.2
20260502111601 0 0 0.0 3.2 0.00 0.00 0.00 76 1018.1
20260502110100 0 0 0.0 0.0 0.00 0.00 0.00 75 1018.1
20260502104609 0 0 0.0 0.0 0.00 0.00 0.00 75 1018.1
20260502103059 0 0 0.0 0.0 0.00 0.00 0.00 76 1018.1
20260502101610 0 0 0.0 0.0 0.00 0.00 0.00 75 1018.1
20260502090109 1 0 0.0 0.0 0.00 0.00 0.00 72 1017.9
20260502070115 2 0 0.0 0.0 0.00 0.00 0.00 63 1018.4
20260502064558 3 0 0.0 0.0 0.00 0.00 0.00 61 1018.4
20260502063123 3 0 0.0 0.0 0.00 0.00 0.00 60 1018.5
20260502061558 3 0 0.0 0.0 0.00 0.00 0.00 59 1018.5
20260502060059 4 0 0.0 0.0 0.00 0.00 0.00 58 1018.5
20260502054612 5 0 0.0 0.0 0.00 0.00 0.00 58 1018.4
20260502053057 5 0 0.0 0.0 0.00 0.00 0.00 57 1018.5
20260502051557 5 0 0.0 1.6 0.00 0.00 0.00 56 1018.5
20260502050100 5 0 0.0 1.6 0.00 0.00 0.00 55 1018.5
20260502044559 5 0 0.0 1.6 0.00 0.00 0.00 55 1018.6
20260502043113 5 0 0.0 3.2 0.00 0.00 0.00 55 1018.7
20260502041622 5 0 0.0 4.8 0.00 0.00 0.00 54 1018.5
20260502040101 6 0 0.0 1.6 0.00 0.00 0.00 51 1018.6
20260502034558 6 0 0.0 0.0 0.00 0.00 0.00 49 1018.7
20260502033057 6 0 0.0 0.0 0.00 0.00 0.00 49 1018.6
20260502031603 7 0 0.0 0.0 0.00 0.00 0.00 48 1018.6
20260502030118 7 0 0.0 0.0 0.00 0.00 0.00 46 1018.4
20260502024605 7 0 0.0 0.0 0.00 0.00 0.00 45 1018.4
20260502023137 8 0 0.0 0.0 0.00 0.00 0.00 44 1018.4
20260502021601 8 0 0.0 0.0 0.00 0.00 0.00 43 1018.3
20260502020104 9 0 0.0 3.2 0.00 0.00 0.00 43 1018.3
20260502014607 10 0 0.0 0.0 0.00 0.00 0.00 36 1018.1
20260502013102 10 0 0.0 0.0 0.00 0.00 0.00 35 1018.0
20260502011608 11 0 0.0 3.2 0.00 0.00 0.00 34 1018.0
20260502010057 11 0 0.0 3.2 0.00 0.00 0.00 34 1017.8
20260502004558 11 0 0.0 3.2 0.00 0.00 0.00 33 1017.7
20260502003056 11 279 0.0 6.4 0.00 0.00 0.00 34 1017.7
20260502001602 11 0 0.0 6.4 0.00 0.00 0.00 33 1017.7
20260502000110 12 260 0.0 11.3 0.00 0.00 0.00 32 1017.7
20260501234558 12 321 3.2 8.0 0.00 0.00 0.00 30 1017.8
20260501233117 12 221 3.2 9.7 0.00 0.00 0.00 31 1017.7
20260501231627 12 0 0.0 4.8 0.00 0.00 0.00 32 1017.9
20260501230122 12 355 1.6 9.7 0.00 0.00 0.00 32 1017.8
20260501224606 12 30 3.2 8.0 0.00 0.00 0.00 30 1017.9
20260501223059 13 343 1.6 8.0 0.00 0.00 0.00 30 1017.9
20260501221611 13 13 3.2 12.9 0.00 0.00 0.00 32 1018.0
20260501220106 13 0 4.8 12.9 0.00 0.00 0.00 30 1018.0
20260501214559 13 355 1.6 14.5 0.00 0.00 0.00 31 1018.1
20260501213056 12 260 6.4 12.9 0.00 0.00 0.00 31 1018.2
20260501211558 12 11 0.0 9.7 0.00 0.00 0.00 32 1018.3
20260501210100 12 292 4.8 11.3 0.00 0.00 0.00 32 1018.3
20260501204600 13 5 4.8 17.7 0.00 0.00 0.00 32 1018.5
20260501203058 12 279 4.8 12.9 0.00 0.00 0.00 36 1018.5
20260501201600 13 271 8.0 16.1 0.00 0.00 0.00 33 1018.7
20260501200100 12 340 4.8 11.3 0.00 0.00 0.00 36 1018.8